Location: Unspecified
(0.0000°N, 0.0000°E)
Time: 07:31:42
(UTC+00:00)

Tiangong 1 - Pass Details

Date: 27 April 2017
Orbit: 329 x 352 km, 42.8° (Epoch: 27 April)

Event Time Altitude Azimuth Distance (km) Brightness Sun altitude
Rises 18:59:23 0° 212° (SSW) 2,123 5.1 -15.0°
Reaches altitude 10° 19:01:31 10° 203° (SSW) 1,278 3.8 -15.5°
Enters shadow 19:03:32 30° 165° (SSE) 641 1.9 -16.0°
